"Pseudo-MPEC" for P11DJDB

Created 2023 Apr 1 19:22:07 UT using Find_Orb

Click here for an explanation of pseudo-MPECs

 
 Astrometry: 
     P11DJDB* C2023 03 21wl-+`tZVe'2La#Y;pP!)Q1CYsvy2v$J[Y0V9@uuRG\Vx1S/g_t1mF51
     P11DJDB  C2023 03 21a=%#n)MOb8+V2QeN3u.eUs?da$^LB+3:0j.mr70dCfv#q;+^6:JEF51
     P11DJDB  C2023 03 21gC/NGGC,g72y0*7tnZ:D7e`CIP7Mv$p_Sqa-;mO,da,NECH9Wb7nF51
     P11DJDB  C2023 03 21Mw7P(N$$SN=`F$G;LvG67-d\P2O-Ng!mAstrometryQFv/$)8Bi8F51
     P11DJDB !C2023 03 24j-A.X;llj@1VuP#'PyjU((QK@+M2]\Nox/0DUUDPfTKpX,G1wV:%J04
     P11DJDB !C2023 03 24a?l5'XL=-B;p,:Ka8!redacted;(m'clickR%3S60/*jp$D=9KufJ04
     P11DJDB  C2023 03 31i\b^RnxX0738^:jc(DSlhere-8\XO/,JOua73m`2KpI9.aSRJ5PWF51
     P11DJDB  C2023 03 31(^odeEkuQoJV9JKOrNhZiv291cKm!@2q,W[be_BB!for[FWaO)icF51
     P11DJDB  C2023 03 31YnPLYmwMn_?$[9XFxBT[Bexplanation1vr;fj$y^TK=!IjoAO4yF51

Station data:
(F51) Pan-STARRS 1, Haleakala  (N20.707234 W156.255910)  US/Hawaii.
   Observers J. Bulger, T. Lowe, A. Schultz, M. Willman. Measurers K.
   Chambers, S. Chastel, T. de Boer, L. Denneau, J. Fairlamb, H. Flewelling,
   M. Huber, C.-C. Lin, E. Magnier, Y. Ramanjooloo, R. Wainscoat, R. Weryk.
   1.8-m Ritchey-Chrétien + CCD.
(J04) ESA Optical Ground Station, Tenerife  (N28.300921 W16.511830)  Canary
   Islands (Spain).  Observer R. Kresken. Measurers M. Micheli, D. Koschny,
   E. Schwab, M. Busch, A. Knöfel. 1.0-m f/4.4 reflector + CCD.

Orbital elements:  P11DJDB
   Perihelion 2022 Aug 17.50537 +/- 0.695 TT = 12:07:44 (JD 2459809.00537)
Epoch 2023 Mar 31.0 TT = JDT 2460034.5   Earth MOID: 0.6227   Ma: 0.0099
M  88.98237593 +/- 0.32             (J2000 ecliptic)             AutoNEOCP
n   0.39460973 +/- 0.000416         Peri.  332.59480 +/- 0.16
a   1.84087450 +/- 0.00129          Node   113.98851 +/- 0.07
e   0.1355692 +/- 0.00115           Incl.   23.53435 +/- 0.019
P   2.50/912.28d           H 19.15  G  0.15   U  7.5
q 1.59130845 +/- 0.00116    Q 2.09044056 +/- 0.00353
From 9 observations 2023 Mar. 21-31; mean residual 0".06
Residuals in arcseconds: 
230321 F51  .01+  .05+    230321 F51  .10-  .08-    230331 F51  .13+  .05+    
230321 F51  .05+  .06-    230324 J04  .02-  .00     230331 F51  .06-  .08-    
230321 F51  .04+  .08+    230324 J04  .00   .00     230331 F51  .07-  .03+    

Ephemerides (geocentric):
Date (UTC) HH   RA             Dec           delta  r     elong  mag " sig PA
---- --------  ------------   ------------  ------ ------ -----  --- --------
2023 04 01 19  13 56 15.267   +37 16 35.58  1.0297 1.8730 134.8 21.7 .237  38
2023 04 01 20  13 56 12.411   +37 16 58.26  1.0298 1.8730 134.8 21.7 .245  38
2023 04 01 21  13 56 09.554   +37 17 20.87  1.0299 1.8731 134.8 21.7 .253  38
2023 04 01 22  13 56 06.694   +37 17 43.43  1.0300 1.8732 134.8 21.7 .262  38
2023 04 01 23  13 56 03.832   +37 18 05.91  1.0301 1.8733 134.8 21.7 .270  38
2023 04 02 00  13 56 00.967   +37 18 28.34  1.0302 1.8733 134.8 21.7 .279  38
2023 04 02 01  13 55 58.101   +37 18 50.70  1.0303 1.8734 134.8 21.7 .288  38
2023 04 02 02  13 55 55.232   +37 19 13.00  1.0303 1.8735 134.7 21.7 .296  38
2023 04 02 03  13 55 52.361   +37 19 35.23  1.0304 1.8735 134.7 21.7 .305  38
2023 04 02 04  13 55 49.487   +37 19 57.40  1.0305 1.8736 134.7 21.7 .314  38
2023 04 02 05  13 55 46.612   +37 20 19.51  1.0306 1.8737 134.7 21.7 .323  38
2023 04 02 06  13 55 43.734   +37 20 41.55  1.0307 1.8737 134.7 21.7 .331  38
2023 04 02 07  13 55 40.854   +37 21 03.52  1.0308 1.8738 134.7 21.7 .340  38
2023 04 02 08  13 55 37.972   +37 21 25.44  1.0309 1.8739 134.7 21.7 .349  38
2023 04 02 09  13 55 35.088   +37 21 47.29  1.0310 1.8740 134.7 21.7 .358  38
2023 04 02 10  13 55 32.202   +37 22 09.07  1.0311 1.8740 134.7 21.7 .367  38
2023 04 02 11  13 55 29.313   +37 22 30.79  1.0311 1.8741 134.7 21.7 .377  38
2023 04 02 12  13 55 26.422   +37 22 52.45  1.0312 1.8742 134.7 21.7 .386  38
2023 04 02 13  13 55 23.530   +37 23 14.04  1.0313 1.8742 134.7 21.7 .395  38
2023 04 02 14  13 55 20.635   +37 23 35.57  1.0314 1.8743 134.7 21.7 .404  38
2023 04 02 15  13 55 17.737   +37 23 57.03  1.0315 1.8744 134.7 21.7 .414  38
2023 04 02 16  13 55 14.838   +37 24 18.43  1.0316 1.8744 134.7 21.7 .423  38
2023 04 02 17  13 55 11.937   +37 24 39.77  1.0317 1.8745 134.7 21.7 .433  38
2023 04 02 18  13 55 09.033   +37 25 01.04  1.0318 1.8746 134.7 21.7 .442  38
2023 04 02 19  13 55 06.128   +37 25 22.25  1.0319 1.8746 134.7 21.7 .452  38
2023 04 02 20  13 55 03.220   +37 25 43.39  1.0320 1.8747 134.7 21.7 .461  38
2023 04 02 21  13 55 00.311   +37 26 04.47  1.0321 1.8748 134.7 21.7 .471  38
2023 04 02 22  13 54 57.399   +37 26 25.48  1.0322 1.8749 134.7 21.7 .481  38
2023 04 02 23  13 54 54.485   +37 26 46.43  1.0322 1.8749 134.7 21.7 .491  38
2023 04 03 00  13 54 51.570   +37 27 07.31  1.0323 1.8750 134.7 21.7 .500  38
2023 04 03 01  13 54 48.652   +37 27 28.13  1.0324 1.8751 134.7 21.7 .510  38
2023 04 03 02  13 54 45.732   +37 27 48.88  1.0325 1.8751 134.7 21.7 .520  38
2023 04 03 03  13 54 42.810   +37 28 09.57  1.0326 1.8752 134.7 21.7 .530  38
2023 04 03 04  13 54 39.886   +37 28 30.20  1.0327 1.8753 134.7 21.7 .540  38
2023 04 03 05  13 54 36.960   +37 28 50.76  1.0328 1.8753 134.6 21.7 .550  38
2023 04 03 06  13 54 34.032   +37 29 11.25  1.0329 1.8754 134.6 21.7 .561  38
2023 04 03 07  13 54 31.103   +37 29 31.68  1.0330 1.8755 134.6 21.7 .571  38
2023 04 03 08  13 54 28.171   +37 29 52.05  1.0331 1.8756 134.6 21.7 .581  38
2023 04 03 09  13 54 25.237   +37 30 12.35  1.0332 1.8756 134.6 21.7 .591  38
2023 04 03 10  13 54 22.301   +37 30 32.58  1.0333 1.8757 134.6 21.7 .602  38
2023 04 03 11  13 54 19.364   +37 30 52.75  1.0334 1.8758 134.6 21.7 .612  38
2023 04 03 12  13 54 16.424   +37 31 12.86  1.0335 1.8758 134.6 21.7 .623  37
2023 04 03 13  13 54 13.482   +37 31 32.90  1.0336 1.8759 134.6 21.7 .633  37
2023 04 03 14  13 54 10.539   +37 31 52.87  1.0337 1.8760 134.6 21.7 .644  37
2023 04 03 15  13 54 07.594   +37 32 12.78  1.0338 1.8760 134.6 21.7 .655  37
2023 04 03 16  13 54 04.646   +37 32 32.63  1.0339 1.8761 134.6 21.7 .665  37
2023 04 03 17  13 54 01.697   +37 32 52.41  1.0340 1.8762 134.6 21.7 .676  37
2023 04 03 18  13 53 58.746   +37 33 12.12  1.0341 1.8763 134.6 21.7 .687  37